GW0710 Weather Reports


Display with metric or nautical units.
time (UTC)temp
F
wind
direction
speed
MPH
gust
MPH
rain 1hr
in
rain 24hr
in
rain mn
in
humidity
%
barometer
mb
20260906153102 80 349 2.0 9.0 0.00 0.00 0.00 79 1018.0
20260906151605 79 127 3.0 8.0 0.00 0.00 0.00 78 1017.9
20260906150114 79 131 2.0 8.0 0.00 0.00 0.00 79 1017.7
20260906144602 78 109 2.0 8.0 0.00 0.00 0.00 80 1017.8
20260906143101 77 98 2.0 6.0 0.00 0.00 0.00 81 1017.8
20260906141601 77 39 3.0 7.0 0.00 0.00 0.00 82 1017.7
20260906140106 76 86 0.0 8.0 0.00 0.00 0.00 85 1017.6
20260906134559 75 71 3.0 8.0 0.00 0.00 0.00 87 1017.6
20260906133124 74 127 2.0 8.0 0.00 0.00 0.00 90 1017.3
20260906131604 74 98 3.0 8.0 0.00 0.00 0.00 91 1017.3
20260906130119 74 94 2.0 7.0 0.00 0.00 0.00 91 1017.3
20260906124603 73 0 2.0 9.0 0.00 0.00 0.00 91 1017.1
20260906123059 73 102 2.0 6.0 0.00 0.00 0.00 91 1017.0
20260906121556 73 0 0.0 3.0 0.00 0.00 0.00 91 1017.1
20260906120103 73 142 1.0 4.0 0.00 0.00 0.00 90 1017.0
20260906114602 73 85 1.0 8.0 0.00 0.00 0.00 90 1017.0
20260906113100 73 127 0.0 3.0 0.00 0.00 0.00 91 1017.0
20260906111611 73 83 0.0 2.0 0.00 0.00 0.00 91 1016.9
20260906110100 74 144 1.0 5.0 0.00 0.00 0.00 91 1016.7
20260906104557 74 92 1.0 6.0 0.00 0.00 0.00 91 1016.3
20260906103100 74 82 1.0 4.0 0.00 0.00 0.00 91 1016.2
20260906101601 74 120 1.0 6.0 0.00 0.00 0.00 91 1016.2
20260906100059 75 99 2.0 4.0 0.00 0.00 0.00 90 1016.0
20260906094556 75 148 2.0 6.0 0.00 0.00 0.00 90 1016.0
20260906093104 75 122 1.0 6.0 0.00 0.00 0.00 90 1015.8
20260906091602 76 0 2.0 8.0 0.00 0.00 0.00 90 1015.7
20260906090101 76 80 3.0 9.0 0.00 0.00 0.00 90 1015.6
20260906084557 76 308 2.0 8.0 0.00 0.00 0.00 90 1015.4
20260906083100 77 155 2.0 6.0 0.00 0.00 0.00 90 1015.4
20260906081600 77 146 2.0 9.0 0.00 0.00 0.00 89 1015.4
20260906080107 77 0 1.0 6.0 0.00 0.00 0.00 90 1015.6
20260906074559 77 0 1.0 6.0 0.00 0.00 0.00 90 1015.4
20260906073103 78 34 2.0 8.0 0.00 0.00 0.00 90 1015.5
20260906071604 78 0 1.0 6.0 0.00 0.00 0.00 90 1015.4
20260906070059 78 82 1.0 4.0 0.00 0.00 0.00 89 1015.3
20260906064601 79 94 1.0 5.0 0.00 0.00 0.00 89 1015.3
20260906063100 79 0 0.0 4.0 0.00 0.00 0.00 88 1015.4
20260906061611 79 0 0.0 2.0 0.00 0.00 0.00 87 1015.5
20260906060107 80 117 0.0 2.0 0.00 0.00 0.00 86 1015.5
20260906054608 80 0 0.0 3.0 0.00 0.00 0.00 85 1015.6
20260906053101 80 0 0.0 1.0 0.00 0.00 0.00 85 1015.4
20260906051613 81 0 0.0 1.0 0.00 0.00 0.00 84 1015.3
20260906050105 81 0 0.0 1.0 0.00 0.00 0.00 84 1015.2
20260906044607 81 0 0.0 1.0 0.00 0.00 0.00 82 1015.1
20260906043106 82 0 0.0 1.0 0.00 0.00 0.00 82 1014.9
20260906041601 82 95 0.0 1.0 0.00 0.00 0.00 81 1014.7
20260906040139 82 0 0.0 2.0 0.00 0.00 0.00 80 1014.5
20260906034620 83 0 0.0 3.0 0.00 0.00 0.00 79 1014.5
20260906033108 83 0 1.0 4.0 0.00 0.00 0.00 78 1014.2
20260906031602 84 0 0.0 3.0 0.00 0.00 0.00 77 1014.1
20260906030104 84 94 0.0 2.0 0.00 0.00 0.00 76 1014.1
20260906024615 85 131 0.0 3.0 0.00 0.00 0.00 75 1014.0
20260906023134 85 99 0.0 3.0 0.00 0.00 0.00 74 1014.0
20260906021600 86 0 0.0 2.0 0.00 0.00 0.00 72 1013.8
20260906020057 86 0 0.0 2.0 0.00 0.00 0.00 71 1013.6
20260906014603 87 0 0.0 1.0 0.00 0.00 0.00 69 1013.4
20260906013109 87 0 0.0 2.0 0.00 0.00 0.00 68 1013.1
20260906011601 88 226 0.0 2.0 0.00 0.00 0.00 66 1013.1
20260906010059 89 0 0.0 3.0 0.00 0.00 0.00 63 1012.9
20260906004604 90 84 0.0 2.0 0.00 0.00 0.00 59 1012.8
20260906003104 92 0 0.0 3.0 0.00 0.00 0.00 56 1012.7
20260906001609 93 308 0.0 2.0 0.00 0.00 0.00 53 1012.8
20260906000058 94 0 0.0 4.0 0.00 0.00 0.00 51 1012.7
20260905234606 95 37 1.0 4.0 0.00 0.00 0.00 50 1012.7
20260905233104 95 338 1.0 5.0 0.00 0.00 0.00 48 1012.8
20260905231605 96 49 2.0 6.0 0.00 0.00 0.00 46 1012.6
20260905230106 97 32 1.0 5.0 0.00 0.00 0.00 45 1012.4
20260905224619 97 59 3.0 9.0 0.00 0.00 0.00 44 1012.4
20260905223116 98 355 3.0 9.0 0.00 0.00 0.00 42 1012.4
20260905221604 97 333 2.0 6.0 0.00 0.00 0.00 43 1012.5
20260905220108 96 269 3.0 9.0 0.00 0.00 0.00 45 1012.5
20260905214604 96 306 4.0 10.0 0.00 0.00 0.00 45 1012.5
20260905213103 96 355 2.0 9.0 0.00 0.00 0.00 44 1012.7
20260905211603 97 306 3.0 8.0 0.00 0.00 0.00 45 1012.8
20260905210107 96 286 3.0 11.0 0.00 0.00 0.00 45 1013.0
20260905204556 97 277 2.0 8.0 0.00 0.00 0.00 43 1013.2
20260905203101 97 273 4.0 9.0 0.00 0.00 0.00 46 1013.2
20260905201605 96 218 3.0 8.0 0.00 0.00 0.00 46 1013.4
20260905200106 96 292 3.0 8.0 0.00 0.00 0.00 46 1013.6
20260905194556 96 293 3.0 7.0 0.00 0.00 0.00 46 1013.8
20260905193058 97 295 2.0 10.0 0.00 0.00 0.00 45 1013.9
20260905191614 97 298 2.0 9.0 0.00 0.00 0.00 45 1014.0
20260905190129 97 307 3.0 8.0 0.00 0.00 0.00 45 1014.1
20260905184609 96 304 7.0 11.0 0.00 0.00 0.00 45 1014.2
20260905183103 97 277 4.0 11.0 0.00 0.00 0.00 45 1014.3
20260905181608 96 301 3.0 10.0 0.00 0.00 0.00 48 1014.3
20260905180107 96 281 4.0 11.0 0.00 0.00 0.00 47 1014.3
20260905174603 96 296 4.0 9.0 0.00 0.00 0.00 47 1014.6
20260905173131 96 269 2.0 9.0 0.00 0.00 0.00 48 1014.7
20260905171602 94 286 4.0 10.0 0.00 0.00 0.00 50 1015.1
20260905170116 95 313 2.0 8.0 0.00 0.00 0.00 49 1015.2
20260905164609 95 174 1.0 9.0 0.00 0.00 0.00 51 1015.4
20260905163124 94 302 1.0 8.0 0.00 0.00 0.00 52 1015.3
20260905161616 93 255 3.0 7.0 0.00 0.00 0.00 54 1015.1
20260905160120 92 292 2.0 6.0 0.00 0.00 0.00 61 1015.0
20260905154628 91 300 3.0 6.0 0.00 0.00 0.00 63 1015.1